Hourly Data Report for October 16, 2019

All times are specified in Local Standard Time (LST). Add 1 hour to adjust for Daylight Saving Time where and when it is observed.

SEPT-ILES
QUEBEC
Current Station Operator: ECCC - MSC

50°13'00.000" N
66°15'00.000" W
52.60 m
7047914
71279
XZV

Download Data

Hourly Data (October 2019)
Hourly Data Report for October 16, 2019
TIME Temp Definition
°C
Dew Point Definition
°C
Rel Hum Definition
%
Wind Dir Definition
10's deg

Wind Spd Definition
km/h
Visibility Definition
km
Stn Press Definition
kPa
Hmdx Definition


Wind Chill Definition


Weather Definition


00:00 6.3 2.7 78 24 6   100.55     LegendNANA
01:00 6.8 3.3 79 25 11   100.52     LegendNANA
02:00 6.4 2.7 77 25 14   100.50     LegendNANA
03:00 4.3 1.6 83 29 8   100.55     LegendNANA
04:00 3.0 0.7 84 29 8   100.57     LegendNANA
05:00 1.5 0.1 91 28 5   100.65     LegendNANA
06:00 -1.3 -2.8 90   0   100.70     LegendNANA
07:00 1.0 -1.3 85 30 1   100.79     LegendNANA
08:00 6.1 -0.1 64 29 7   100.82     LegendNANA
09:00 7.9 -0.3 56 29 7   100.82     LegendNANA
10:00 8.7 -1.3 49 27 12   100.80     LegendNANA
11:00 8.5 0.9 59 26 10   100.84     LegendNANA
12:00 8.1 1.8 64 22 7   100.85     LegendNANA
13:00 8.2 1.8 64 23 9   100.82     LegendNANA
14:00 8.4 3.0 69 24 9   100.82     LegendNANA
15:00 7.8 3.7 75 24 9   100.80     LegendNANA
16:00 7.1 4.5 83 23 5   100.90     LegendNANA
17:00 4.4 1.9 84 1 3   100.89     LegendNANA
18:00 2.7 1.4 91 1 2   100.95     LegendNANA
19:00 2.7 1.5 92 5 6   100.94     LegendNANA
20:00 2.4 1.3 93 3 6   100.91     LegendNANA
21:00 3.1 1.3 88 3 9   100.85     LegendNANA
22:00 3.3 1.3 87 4 6   100.86     LegendNANA
23:00 3.0 1.1 87 4 4   100.87     LegendNANA

Notes on Data Quality.

Legend

  • E = Estimated
  • M = Missing
  • NA = Not Available
Date modified: